28/04/2024 23:15:00,0.901
28/04/2024 23:30:00,0.875
28/04/2024 23:45:00,0.836
29/04/2024 00:00:00,0.809
29/04/2024 00:15:00,0.793
29/04/2024 00:30:00,0.772
29/04/2024 00:45:00,0.741
29/04/2024 01:00:00,0.717
29/04/2024 01:15:00,0.693
29/04/2024 01:30:00,0.658
29/04/2024 01:45:00,0.632
29/04/2024 02:00:00,0.616
29/04/2024 02:15:00,0.607
29/04/2024 02:30:00,0.604
29/04/2024 02:45:00,0.602
29/04/2024 03:00:00,0.602
29/04/2024 03:15:00,0.601
29/04/2024 03:30:00,0.6
29/04/2024 03:45:00,0.6
29/04/2024 04:00:00,0.601
29/04/2024 04:15:00,0.6
29/04/2024 04:30:00,0.601
29/04/2024 04:45:00,0.601
29/04/2024 05:00:00,0.6
29/04/2024 05:15:00,0.601
29/04/2024 05:30:00,0.601
29/04/2024 05:45:00,0.602
29/04/2024 06:00:00,0.602
29/04/2024 06:15:00,0.602
29/04/2024 06:30:00,0.603
29/04/2024 06:45:00,0.602
29/04/2024 07:00:00,0.603
29/04/2024 07:15:00,0.602
29/04/2024 07:30:00,0.602
29/04/2024 07:45:00,0.603
29/04/2024 08:00:00,0.604
29/04/2024 08:15:00,0.604
29/04/2024 08:30:00,0.603
29/04/2024 08:45:00,0.605
29/04/2024 09:00:00,0.605
29/04/2024 09:15:00,0.605
29/04/2024 09:30:00,0.605
29/04/2024 09:45:00,0.605
29/04/2024 10:00:00,0.607
29/04/2024 10:15:00,0.606
29/04/2024 10:30:00,0.607
29/04/2024 10:45:00,0.607
29/04/2024 11:00:00,0.608
29/04/2024 11:15:00,0.609
29/04/2024 11:30:00,0.609
29/04/2024 11:45:00,0.61
29/04/2024 12:00:00,0.61
29/04/2024 12:15:00,0.61
29/04/2024 12:30:00,0.611
29/04/2024 12:45:00,0.611
29/04/2024 13:00:00,0.613
29/04/2024 13:15:00,0.612
29/04/2024 13:30:00,0.613
29/04/2024 13:45:00,0.614
29/04/2024 14:00:00,0.614
29/04/2024 14:15:00,0.615
29/04/2024 14:30:00,0.615
29/04/2024 14:45:00,0.615
29/04/2024 15:00:00,0.616
29/04/2024 15:15:00,0.616
29/04/2024 15:30:00,0.616
29/04/2024 15:45:00,0.616
29/04/2024 16:00:00,0.614
29/04/2024 16:15:00,0.6
29/04/2024 16:30:00,0.587
29/04/2024 16:45:00,0.576
29/04/2024 17:00:00,0.571
29/04/2024 17:15:00,0.567
29/04/2024 17:30:00,0.566
29/04/2024 17:45:00,0.565
29/04/2024 18:00:00,0.564
29/04/2024 18:15:00,0.565
29/04/2024 18:30:00,0.565
29/04/2024 18:45:00,0.571
29/04/2024 19:00:00,0.579
29/04/2024 19:15:00,0.586
29/04/2024 19:30:00,0.589
29/04/2024 19:45:00,0.591
29/04/2024 20:00:00,0.591
29/04/2024 20:15:00,0.591
29/04/2024 20:30:00,0.592
29/04/2024 20:45:00,0.591
29/04/2024 21:00:00,0.592
29/04/2024 21:15:00,0.592
29/04/2024 21:30:00,0.591
29/04/2024 21:45:00,0.591
29/04/2024 22:00:00,0.59
29/04/2024 22:15:00,0.591
29/04/2024 22:30:00,0.591
29/04/2024 22:45:00,0.591
29/04/2024 23:00:00,0.59
29/04/2024 23:15:00,0.59
29/04/2024 23:30:00,0.59
29/04/2024 23:45:00,0.59
30/04/2024 00:00:00,0.59
30/04/2024 00:15:00,0.59
30/04/2024 00:30:00,0.59
30/04/2024 00:45:00,0.59
30/04/2024 01:00:00,0.589
30/04/2024 01:15:00,0.59
30/04/2024 01:30:00,0.59
30/04/2024 01:45:00,0.589
30/04/2024 02:00:00,0.589
30/04/2024 02:15:00,0.59
30/04/2024 02:30:00,0.591
30/04/2024 02:45:00,0.589
30/04/2024 03:00:00,0.589
30/04/2024 03:15:00,0.59
30/04/2024 03:30:00,0.588
30/04/2024 03:45:00,0.587
30/04/2024 04:00:00,0.587
30/04/2024 04:15:00,0.587
30/04/2024 04:30:00,0.587
30/04/2024 04:45:00,0.587
30/04/2024 05:00:00,0.587
30/04/2024 05:15:00,0.587
30/04/2024 05:30:00,0.587
30/04/2024 05:45:00,0.587
30/04/2024 06:00:00,0.587
30/04/2024 06:15:00,0.587
30/04/2024 06:30:00,0.587
30/04/2024 06:45:00,0.587
30/04/2024 07:00:00,0.587
30/04/2024 07:15:00,0.586
30/04/2024 07:30:00,0.586
30/04/2024 07:45:00,0.586
30/04/2024 08:00:00,0.586
30/04/2024 08:15:00,0.587
30/04/2024 08:30:00,0.586
30/04/2024 08:45:00,0.585
30/04/2024 09:00:00,0.585
30/04/2024 09:15:00,0.585
30/04/2024 09:30:00,0.584
30/04/2024 09:45:00,0.584
30/04/2024 10:00:00,0.584
30/04/2024 10:15:00,0.584
30/04/2024 10:30:00,0.585
30/04/2024 10:45:00,0.599
30/04/2024 11:00:00,0.621
30/04/2024 11:15:00,0.636
30/04/2024 11:30:00,0.643
30/04/2024 11:45:00,0.646
30/04/2024 12:00:00,0.649
30/04/2024 12:15:00,0.647
30/04/2024 12:30:00,0.65
30/04/2024 12:45:00,0.651
30/04/2024 13:00:00,0.65
30/04/2024 13:15:00,0.65
30/04/2024 13:30:00,0.649
30/04/2024 13:45:00,0.649
30/04/2024 14:00:00,0.649
30/04/2024 14:15:00,0.649
30/04/2024 14:30:00,0.649
30/04/2024 14:45:00,0.649
30/04/2024 15:00:00,0.648
30/04/2024 15:15:00,0.647
30/04/2024 15:30:00,0.649
30/04/2024 15:45:00,0.647
30/04/2024 16:00:00,0.647
30/04/2024 16:15:00,0.646
30/04/2024 16:30:00,0.648
30/04/2024 16:45:00,0.65
30/04/2024 17:00:00,0.65
30/04/2024 17:15:00,0.649
30/04/2024 17:30:00,0.65
30/04/2024 17:45:00,0.65
30/04/2024 18:00:00,0.651
30/04/2024 18:15:00,0.65
30/04/2024 18:30:00,0.65
30/04/2024 18:45:00,0.65
30/04/2024 19:00:00,0.65
30/04/2024 19:15:00,0.651
30/04/2024 19:30:00,0.65
30/04/2024 19:45:00,0.65
30/04/2024 20:00:00,0.651
30/04/2024 20:15:00,0.651
30/04/2024 20:30:00,0.649
30/04/2024 20:45:00,0.649
30/04/2024 21:00:00,0.648
30/04/2024 21:15:00,0.65
30/04/2024 21:30:00,0.648
30/04/2024 21:45:00,0.648
30/04/2024 22:00:00,0.649
30/04/2024 22:15:00,0.658
30/04/2024 22:30:00,0.677
30/04/2024 22:45:00,0.691
30/04/2024 23:00:00,0.698
30/04/2024 23:15:00,0.701
30/04/2024 23:30:00,0.703
30/04/2024 23:45:00,0.702
01/05/2024 00:00:00,0.705
01/05/2024 00:15:00,0.705
01/05/2024 00:30:00,0.704
01/05/2024 00:45:00,0.704
01/05/2024 01:00:00,0.703
01/05/2024 01:15:00,0.702
01/05/2024 01:30:00,0.703
01/05/2024 01:45:00,0.704
01/05/2024 02:00:00,0.703
01/05/2024 02:15:00,0.704
01/05/2024 02:30:00,0.702
01/05/2024 02:45:00,0.702
01/05/2024 03:00:00,0.702
01/05/2024 03:15:00,0.702
01/05/2024 03:30:00,0.702
01/05/2024 03:45:00,0.701
01/05/2024 04:00:00,0.701
01/05/2024 04:15:00,0.702
01/05/2024 04:30:00,0.701
01/05/2024 04:45:00,0.701
01/05/2024 05:00:00,0.701
01/05/2024 05:15:00,0.701
01/05/2024 05:30:00,0.701
01/05/2024 05:45:00,0.7
01/05/2024 06:00:00,0.699
01/05/2024 06:15:00,0.699
01/05/2024 06:30:00,0.699
01/05/2024 06:45:00,0.708
01/05/2024 07:00:00,0.719
01/05/2024 07:15:00,0.726
01/05/2024 07:30:00,0.731
01/05/2024 07:45:00,0.732
01/05/2024 08:00:00,0.734
01/05/2024 08:15:00,0.734
01/05/2024 08:30:00,0.734
01/05/2024 08:45:00,0.734
01/05/2024 09:00:00,0.734
01/05/2024 09:15:00,0.731
01/05/2024 09:30:00,0.733
01/05/2024 09:45:00,0.732
01/05/2024 10:00:00,0.733
01/05/2024 10:15:00,0.731
01/05/2024 10:30:00,0.732
01/05/2024 10:45:00,0.734
01/05/2024 11:00:00,0.735
01/05/2024 11:15:00,0.733
01/05/2024 11:30:00,0.737
01/05/2024 11:45:00,0.751
01/05/2024 12:00:00,0.765
01/05/2024 12:15:00,0.773
01/05/2024 12:30:00,0.775
01/05/2024 12:45:00,0.775
01/05/2024 13:00:00,0.778
01/05/2024 13:15:00,0.777
01/05/2024 13:30:00,0.778
01/05/2024 13:45:00,0.778
01/05/2024 14:00:00,0.779
01/05/2024 14:15:00,0.778
01/05/2024 14:30:00,0.778
01/05/2024 14:45:00,0.777
01/05/2024 15:00:00,0.778
01/05/2024 15:15:00,0.776
01/05/2024 15:30:00,0.776
01/05/2024 15:45:00,0.775
01/05/2024 16:00:00,0.775
01/05/2024 16:15:00,0.775
01/05/2024 16:30:00,0.779
01/05/2024 16:45:00,0.793
01/05/2024 17:00:00,0.808
01/05/2024 17:15:00,0.814
01/05/2024 17:30:00,0.817
01/05/2024 17:45:00,0.817
01/05/2024 18:00:00,0.821
01/05/2024 18:15:00,0.821
01/05/2024 18:30:00,0.821
01/05/2024 18:45:00,0.821
01/05/2024 19:00:00,0.82
01/05/2024 19:15:00,0.821
01/05/2024 19:30:00,0.821
01/05/2024 19:45:00,0.821
01/05/2024 20:00:00,0.821
01/05/2024 20:15:00,0.821
01/05/2024 20:30:00,0.821
01/05/2024 20:45:00,0.821
01/05/2024 21:00:00,0.821
01/05/2024 21:15:00,0.823
01/05/2024 21:30:00,0.821
01/05/2024 21:45:00,0.823
01/05/2024 22:00:00,0.824
01/05/2024 22:15:00,0.823
01/05/2024 22:30:00,0.824
01/05/2024 22:45:00,0.824
01/05/2024 23:00:00,0.823
01/05/2024 23:15:00,0.823
01/05/2024 23:30:00,0.824
01/05/2024 23:45:00,0.833
02/05/2024 00:00:00,0.864
02/05/2024 00:15:00,0.892
02/05/2024 00:30:00,0.903
02/05/2024 00:45:00,0.912
02/05/2024 01:00:00,0.913
02/05/2024 01:15:00,0.917
02/05/2024 01:30:00,0.919
02/05/2024 01:45:00,0.921
02/05/2024 02:00:00,0.92
02/05/2024 02:15:00,0.919
02/05/2024 02:30:00,0.921
02/05/2024 02:45:00,0.924
02/05/2024 03:00:00,0.922
02/05/2024 03:15:00,0.925
02/05/2024 03:30:00,0.926
02/05/2024 03:45:00,0.926
02/05/2024 04:00:00,0.927
02/05/2024 04:15:00,0.928
02/05/2024 04:30:00,0.931
02/05/2024 04:45:00,0.928
02/05/2024 05:00:00,0.929
02/05/2024 05:15:00,0.931
02/05/2024 05:30:00,0.931
02/05/2024 05:45:00,0.932
02/05/2024 06:00:00,0.933
02/05/2024 06:15:00,0.936
02/05/2024 06:30:00,0.935
02/05/2024 06:45:00,0.926
02/05/2024 07:00:00,0.893
02/05/2024 07:15:00,0.87
02/05/2024 07:30:00,0.855
02/05/2024 07:45:00,0.85
02/05/2024 08:00:00,0.824
02/05/2024 08:15:00,0.801
02/05/2024 08:30:00,0.794
02/05/2024 08:45:00,0.799
02/05/2024 09:00:00,0.816
02/05/2024 09:15:00,0.832
02/05/2024 09:30:00,0.853
02/05/2024 09:45:00,0.871
02/05/2024 10:00:00,0.879
02/05/2024 10:15:00,0.891
02/05/2024 10:30:00,0.913
02/05/2024 10:45:00,0.923
02/05/2024 11:00:00,0.928
02/05/2024 11:15:00,0.935
02/05/2024 11:30:00,0.943
02/05/2024 11:45:00,0.959
02/05/2024 12:00:00,0.969
02/05/2024 12:15:00,0.974
02/05/2024 12:30:00,0.97
02/05/2024 12:45:00,0.973
02/05/2024 13:00:00,0.977
02/05/2024 13:15:00,0.971
02/05/2024 13:30:00,0.97
02/05/2024 13:45:00,0.973
02/05/2024 14:00:00,0.971
02/05/2024 14:15:00,0.973
02/05/2024 14:30:00,0.975
02/05/2024 14:45:00,0.969
02/05/2024 15:00:00,0.97
02/05/2024 15:15:00,0.971
02/05/2024 15:30:00,0.968
02/05/2024 15:45:00,0.933
02/05/2024 16:00:00,0.905
02/05/2024 16:15:00,0.889
02/05/2024 16:30:00,0.883
02/05/2024 16:45:00,0.873
02/05/2024 17:00:00,0.844
02/05/2024 17:15:00,0.807
02/05/2024 17:30:00,0.763
02/05/2024 17:45:00,0.719
02/05/2024 18:00:00,0.683
02/05/2024 18:15:00,0.648
02/05/2024 18:30:00,0.624
02/05/2024 18:45:00,0.61
02/05/2024 19:00:00,0.603
02/05/2024 19:15:00,0.599
02/05/2024 19:30:00,0.597
02/05/2024 19:45:00,0.595
02/05/2024 20:00:00,0.595
02/05/2024 20:15:00,0.59
02/05/2024 20:30:00,0.579
02/05/2024 20:45:00,0.569
02/05/2024 21:00:00,0.562
02/05/2024 21:15:00,0.558
02/05/2024 21:30:00,0.557
02/05/2024 21:45:00,0.556
02/05/2024 22:00:00,0.555
02/05/2024 22:15:00,0.557
02/05/2024 22:30:00,0.557
02/05/2024 22:45:00,0.556
02/05/2024 23:00:00,0.556
02/05/2024 23:15:00,0.556
02/05/2024 23:30:00,0.556
02/05/2024 23:45:00,0.556
03/05/2024 00:00:00,0.557
03/05/2024 00:15:00,0.557
03/05/2024 00:30:00,0.557
03/05/2024 00:45:00,0.557
03/05/2024 01:00:00,0.557
03/05/2024 01:15:00,0.558
03/05/2024 01:30:00,0.559
03/05/2024 01:45:00,0.563
03/05/2024 02:00:00,0.566
03/05/2024 02:15:00,0.567
03/05/2024 02:30:00,0.567
03/05/2024 02:45:00,0.567
03/05/2024 03:00:00,0.568
03/05/2024 03:15:00,0.568
03/05/2024 03:30:00,0.568
03/05/2024 03:45:00,0.569
03/05/2024 04:00:00,0.568
03/05/2024 04:15:00,0.569
03/05/2024 04:30:00,0.568
03/05/2024 04:45:00,0.569
03/05/2024 05:00:00,0.569
03/05/2024 05:15:00,0.569
03/05/2024 05:30:00,0.569
03/05/2024 05:45:00,0.569
03/05/2024 06:00:00,0.569
03/05/2024 06:15:00,0.569
03/05/2024 06:30:00,0.569
03/05/2024 06:45:00,0.569
03/05/2024 07:00:00,0.569
03/05/2024 07:15:00,0.569
03/05/2024 07:30:00,0.569
03/05/2024 07:45:00,0.57
03/05/2024 08:00:00,0.569
03/05/2024 08:15:00,0.569
03/05/2024 08:30:00,0.569
03/05/2024 08:45:00,0.569
03/05/2024 09:00:00,0.569
03/05/2024 09:15:00,0.569
03/05/2024 09:30:00,0.569
03/05/2024 09:45:00,0.571
03/05/2024 10:00:00,0.571
03/05/2024 10:15:00,0.571
03/05/2024 10:30:00,0.579
03/05/2024 10:45:00,0.589
03/05/2024 11:00:00,0.603
03/05/2024 11:15:00,0.622
03/05/2024 11:30:00,0.635
03/05/2024 11:45:00,0.641
03/05/2024 12:00:00,0.645
03/05/2024 12:15:00,0.647
03/05/2024 12:30:00,0.647
03/05/2024 12:45:00,0.643
03/05/2024 13:00:00,0.629
03/05/2024 13:15:00,0.617
03/05/2024 13:30:00,0.607
03/05/2024 13:45:00,0.602
03/05/2024 14:00:00,0.6
03/05/2024 14:15:00,0.599
03/05/2024 14:30:00,0.598
03/05/2024 14:45:00,0.595
03/05/2024 15:00:00,0.595
03/05/2024 15:15:00,0.595
03/05/2024 15:30:00,0.592
03/05/2024 15:45:00,0.59
03/05/2024 16:00:00,0.591
03/05/2024 16:15:00,0.59
03/05/2024 16:30:00,0.59
03/05/2024 16:45:00,0.591
03/05/2024 17:00:00,0.589
03/05/2024 17:15:00,0.577
03/05/2024 17:30:00,0.569
03/05/2024 17:45:00,0.565
03/05/2024 18:00:00,0.564
03/05/2024 18:15:00,0.561
03/05/2024 18:30:00,0.561
03/05/2024 18:45:00,0.56
03/05/2024 19:00:00,0.559
03/05/2024 19:15:00,0.559
03/05/2024 19:30:00,0.559
03/05/2024 19:45:00,0.559
03/05/2024 20:00:00,0.561
03/05/2024 20:15:00,0.559
03/05/2024 20:30:00,0.559
03/05/2024 20:45:00,0.559
03/05/2024 21:00:00,0.559
